Weather History for Madison, SD

Change the Weather History Date:

Sunday, March 2, 2014

  Actual Average Record
Temperature  
Mean Temperature -8 °F -  
Max Temperature 0 °F 35 °F 26 °F (2013)
Min Temperature -16 °F 16 °F -16 °F (2014)
Degree Days  
Heating Degree Days 73    
Moisture  
Dew Point -17 °F    
Average Humidity 65    
Maximum Humidity 77    
Minimum Humidity 50    
Precipitation  
Precipitation 0.00 in - - ()
Sea Level Pressure  
Sea Level Pressure 30.49 in    
Wind  
Wind Speed 10 mph (NW)    
Max Wind Speed 16 mph    
Max Gust Speed 18 mph    
Visibility 10 miles    
Events      
Averages and records for this station are not official NWS values.
T = Trace of Precipitation, MM = Missing Value Source: NWS Daily Summary

Daily Weather History Graph

Daily Weather History Graph

Search for Another Location

Airport:

Trip Planner

Search our weather history database for the weather conditions in past years. The results will help you decide how hot, cold, wet, or windy it might be!

Date:

Astronomy

Mar. 02, 2014 Rise Set
Actual Time 7:03 AM CST 6:18 PM CST
Civil Twilight 6:34 AM CST 6:47 PM CST
Nautical Twilight 6:01 AM CST 7:20 PM CST
Astronomical Twilight 5:27 AM CST 7:53 PM CST
Moon 7:31 AM CST (3/2) 8:21 PM CST (3/2)
Length of Visible Light 12h 12m
Length of Day
11h 14m
Waxing Crescent, 3% of the Moon is Illuminated
Mar 2
Waxing Crescent
Mar 8
First Quarter
Mar 16
Full
Mar 23
Last Quarter
Mar 30
New

Hourly Weather History & Observations

Time (CST) Temp. Windchill Dew Point Humidity Pressure Visibility Wind Dir Wind Speed Gust Speed Precip Events Conditions
12:05 AM -9.4 °F -27.9 °F -18.4 °F 65% 30.49 in 10.0 mi NNW 10.4 mph - N/A   Mostly Cloudy
12:25 AM -11.2 °F -30.1 °F -20.2 °F 64% 30.50 in 10.0 mi NNW 10.4 mph - N/A   Mostly Cloudy
12:45 AM -11.2 °F -30.1 °F -20.2 °F 64% 30.50 in 10.0 mi NW 10.4 mph - N/A   Overcast
1:05 AM -13.0 °F -32.4 °F -20.2 °F 70% 30.50 in 10.0 mi NNW 10.4 mph - N/A   Mostly Cloudy
1:25 AM -13.0 °F -30.0 °F -20.2 °F 70% 30.50 in 10.0 mi NNW 8.1 mph - N/A   Partly Cloudy
1:45 AM -13.0 °F -31.3 °F -20.2 °F 70% 30.49 in 10.0 mi NNW 9.2 mph - N/A   Clear
2:05 AM -13.0 °F -30.0 °F -20.2 °F 70% 30.48 in 10.0 mi NNW 8.1 mph - N/A   Clear
2:25 AM -13.0 °F -30.0 °F -20.2 °F 70% 30.49 in 10.0 mi NW 8.1 mph - N/A   Clear
2:45 AM -13.0 °F -30.0 °F -20.2 °F 70% 30.49 in 10.0 mi NW 8.1 mph - N/A   Clear
3:05 AM -13.0 °F -32.4 °F -20.2 °F 70% 30.50 in 10.0 mi NW 10.4 mph - N/A   Clear
3:25 AM -13.0 °F -28.6 °F -22.0 °F 64% 30.50 in 10.0 mi NW 6.9 mph - N/A   Clear
3:45 AM -14.8 °F -32.2 °F -22.0 °F 70% 30.49 in 10.0 mi NNW 8.1 mph - N/A   Clear
4:05 AM -14.8 °F -30.8 °F -22.0 °F 70% 30.49 in 10.0 mi NW 6.9 mph - N/A   Partly Cloudy
4:25 AM -16.6 °F - -22.0 °F 76% 30.49 in 10.0 mi North - - N/A   Scattered Clouds
4:45 AM -16.6 °F -32.9 °F -22.0 °F 76% 30.50 in 10.0 mi NW 6.9 mph - N/A   Mostly Cloudy
5:05 AM -14.8 °F -34.6 °F -22.0 °F 70% 30.50 in 10.0 mi NW 10.4 mph - N/A   Scattered Clouds
5:25 AM -14.8 °F -33.5 °F -22.0 °F 70% 30.49 in 10.0 mi NNW 9.2 mph - N/A   Clear
5:45 AM -16.6 °F -35.7 °F -22.0 °F 76% 30.50 in 10.0 mi NW 9.2 mph - N/A   Clear
6:05 AM -14.8 °F -33.5 °F -22.0 °F 70% 30.51 in 10.0 mi NW 9.2 mph - N/A   Clear
6:25 AM -16.6 °F -34.4 °F -22.0 °F 76% 30.50 in 10.0 mi NNW 8.1 mph - N/A   Clear
6:45 AM -16.6 °F -36.8 °F -22.0 °F 76% 30.50 in 10.0 mi NW 10.4 mph - N/A   Clear
7:05 AM -16.6 °F -35.7 °F -22.0 °F 76% 30.50 in 10.0 mi NW 9.2 mph - N/A   Clear
7:25 AM -14.8 °F -32.2 °F -22.0 °F 70% 30.50 in 10.0 mi NW 8.1 mph - N/A   Clear
7:45 AM -14.8 °F -33.5 °F -22.0 °F 70% 30.50 in 10.0 mi WNW 9.2 mph - N/A   Clear
8:05 AM -13.0 °F -31.3 °F -22.0 °F 64% 30.50 in 9.0 mi NW 9.2 mph - N/A   Clear
8:25 AM -13.0 °F -32.4 °F -20.2 °F 70% 30.51 in 9.0 mi WNW 10.4 mph - N/A   Clear
8:45 AM - - - N/A% 30.51 in 10.0 mi NW 9.2 mph - N/A   Clear
9:05 AM -11.2 °F -29.0 °F -18.4 °F 70% 30.52 in 10.0 mi WNW 9.2 mph - N/A   Clear
9:25 AM -9.4 °F -27.9 °F -18.4 °F 65% 30.51 in 10.0 mi NW 10.4 mph - N/A   Clear
9:45 AM -9.4 °F -26.8 °F -18.4 °F 65% 30.51 in 10.0 mi NW 9.2 mph - N/A   Clear
10:05 AM -7.6 °F -27.5 °F -18.4 °F 59% 30.51 in 10.0 mi NW 12.7 mph - N/A   Clear
10:25 AM -7.6 °F -27.5 °F -16.6 °F 65% 30.51 in 10.0 mi NW 12.7 mph - N/A   Clear
10:45 AM -7.6 °F -27.5 °F -18.4 °F 59% 30.52 in 10.0 mi WNW 12.7 mph - N/A   Clear
11:05 AM -7.6 °F -26.6 °F -16.6 °F 65% 30.53 in 10.0 mi WNW 11.5 mph - N/A   Clear
11:25 AM -5.8 °F -24.4 °F -16.6 °F 60% 30.54 in 10.0 mi WNW 11.5 mph - N/A   Clear
11:45 AM -5.8 °F -26.0 °F -16.6 °F 60% 30.54 in 10.0 mi West 13.8 mph - N/A   Clear
12:05 PM -5.8 °F -25.2 °F -16.6 °F 60% 30.54 in 10.0 mi NW 12.7 mph - N/A   Clear
12:25 PM -4.0 °F -23.7 °F -16.6 °F 55% 30.53 in 10.0 mi NW 13.8 mph - N/A   Clear
12:45 PM -4.0 °F -23.0 °F -16.6 °F 55% 30.51 in 10.0 mi NW 12.7 mph - N/A   Clear
1:05 PM -4.0 °F -23.0 °F -16.6 °F 55% 30.50 in 10.0 mi NW 12.7 mph - N/A   Clear
1:25 PM -2.2 °F -20.7 °F -16.6 °F 50% 30.49 in 10.0 mi NW 12.7 mph - N/A   Clear
1:45 PM -2.2 °F -20.7 °F -16.6 °F 50% 30.50 in 10.0 mi NW 12.7 mph 18.4 mph N/A   Clear
2:05 PM -2.2 °F -21.5 °F -14.8 °F 55% 30.50 in 10.0 mi NW 13.8 mph - N/A   Clear
2:25 PM -2.2 °F -20.7 °F -13.0 °F 60% 30.51 in 10.0 mi NW 12.7 mph - N/A   Clear
2:45 PM -0.4 °F -19.2 °F -14.8 °F 51% 30.50 in 10.0 mi NW 13.8 mph - N/A   Clear
3:05 PM -0.4 °F -19.2 °F -13.0 °F 55% 30.50 in 10.0 mi NW 13.8 mph - N/A   Clear
3:25 PM -0.4 °F -19.2 °F -13.0 °F 55% 30.49 in 10.0 mi NW 13.8 mph - N/A   Clear
3:45 PM -0.4 °F -19.2 °F -13.0 °F 55% 30.49 in 10.0 mi NW 13.8 mph - N/A   Clear
4:05 PM -0.4 °F -19.2 °F -13.0 °F 55% 30.49 in 10.0 mi NW 13.8 mph - N/A   Clear
4:25 PM -0.4 °F -17.6 °F -13.0 °F 55% 30.49 in 10.0 mi NW 11.5 mph - N/A   Clear
4:45 PM -0.4 °F -20.5 °F -13.0 °F 55% 30.47 in 10.0 mi NW 16.1 mph - N/A   Clear
5:05 PM -0.4 °F -19.2 °F -13.0 °F 55% 30.47 in 10.0 mi NNW 13.8 mph - N/A   Clear
5:25 PM -0.4 °F -19.2 °F -13.0 °F 55% 30.47 in 10.0 mi NW 13.8 mph - N/A   Clear
5:45 PM -0.4 °F -16.7 °F -13.0 °F 55% 30.47 in 10.0 mi NW 10.4 mph - N/A   Clear
6:05 PM -2.2 °F -18.0 °F -13.0 °F 60% 30.45 in 10.0 mi NW 9.2 mph - N/A   Clear
6:25 PM -2.2 °F -16.8 °F -13.0 °F 60% 30.45 in 10.0 mi NW 8.1 mph - N/A   Clear
6:45 PM -4.0 °F -17.8 °F -13.0 °F 65% 30.45 in 10.0 mi NW 6.9 mph - N/A   Clear
7:05 PM -4.0 °F -16.3 °F -13.0 °F 65% 30.45 in 10.0 mi WNW 5.8 mph - N/A   Clear
7:25 PM -4.0 °F -14.6 °F -13.0 °F 65% 30.45 in 10.0 mi NW 4.6 mph - N/A   Clear
7:45 PM -5.8 °F -21.2 °F -13.0 °F 71% 30.46 in 10.0 mi NW 8.1 mph - N/A   Clear
8:05 PM -4.0 °F -16.3 °F -13.0 °F 65% 30.45 in 10.0 mi WNW 5.8 mph - N/A   Clear
8:25 PM -4.0 °F -14.6 °F -13.0 °F 65% 30.44 in 10.0 mi West 4.6 mph - N/A   Clear
8:45 PM -4.0 °F -17.8 °F -13.0 °F 65% 30.46 in 10.0 mi WNW 6.9 mph - N/A   Clear
9:05 PM -4.0 °F -17.8 °F -13.0 °F 65% 30.46 in 10.0 mi WNW 6.9 mph - N/A   Clear
9:25 PM -4.0 °F -16.3 °F -13.0 °F 65% 30.46 in 10.0 mi West 5.8 mph - N/A   Clear
9:45 PM -7.6 °F -16.5 °F -14.8 °F 71% 30.47 in 10.0 mi West 3.5 mph - N/A   Clear
10:05 PM -7.6 °F -20.6 °F -13.0 °F 77% 30.47 in 10.0 mi WNW 5.8 mph - N/A   Clear
10:25 PM -5.8 °F -18.4 °F -13.0 °F 71% 30.48 in 10.0 mi WNW 5.8 mph - N/A   Clear
10:45 PM -5.8 °F -18.4 °F -13.0 °F 71% 30.47 in 10.0 mi West 5.8 mph - N/A   Clear
11:05 PM -5.8 °F -21.2 °F -13.0 °F 71% 30.46 in 10.0 mi West 8.1 mph - N/A   Mostly Cloudy
11:25 PM -5.8 °F -21.2 °F -13.0 °F 71% 30.46 in 10.0 mi West 8.1 mph - N/A   Overcast
11:45 PM -5.8 °F -19.9 °F -13.0 °F 71% 30.46 in 10.0 mi West 6.9 mph - N/A   Overcast